This is the latest recevied weather packets stored in our database for station/object IK1AMC-3. If no packets are shown the sender has not sent any weather packets the latest 10 day(s).
| Time | Temp. | Humidity | Pressure | Rain* | Wind** | Luminosity | Snow |
|---|---|---|---|---|---|---|---|
| 1777851499 | 15.56° C | 69% | 1018 hPa | - | - | - | - |
| 1777850297 | 15.56° C | 67% | 1018 hPa | - | - | - | - |
| 1777849096 | 15.56° C | 67% | 1018.1 hPa | - | - | - | - |
| 1777847895 | 16.11° C | 65% | 1018.2 hPa | - | - | - | - |
| 1777846694 | 16.11° C | 63% | 1018.2 hPa | - | - | - | - |
| 1777845492 | 15.56° C | 64% | 1018.3 hPa | - | - | - | - |
| 1777844291 | 16.11° C | 62% | 1018.3 hPa | - | - | - | - |
| 1777843090 | 16.11° C | 60% | 1018.3 hPa | - | - | - | - |
| 1777841888 | 16.11° C | 58% | 1018.2 hPa | - | - | - | - |
| 1777840687 | 16.11° C | 58% | 1018.1 hPa | - | - | - | - |
| 1777839486 | 16.67° C | 58% | 1018 hPa | - | - | - | - |
| 1777838285 | 16.67° C | 61% | 1017.9 hPa | - | - | - | - |
| 1777837083 | 17.22° C | 63% | 1017.8 hPa | - | - | - | - |
| 1777835882 | 17.22° C | 63% | 1017.7 hPa | - | - | - | - |
| 1777834681 | 17.78° C | 65% | 1017.5 hPa | - | - | - | - |
| 1777833479 | 17.78° C | 64% | 1017.3 hPa | - | - | - | - |
| 1777832278 | 18.33° C | 62% | 1017.4 hPa | - | - | - | - |
| 1777831077 | 18.33° C | 61% | 1017.4 hPa | - | - | - | - |
| 1777829875 | 18.89° C | 60% | 1017.3 hPa | - | - | - | - |
| 1777828674 | 18.33° C | 59% | 1017.5 hPa | - | - | - | - |
| 1777827473 | 18.89° C | 60% | 1017.6 hPa | - | - | - | - |
| 1777826271 | 18.89° C | 59% | 1017.6 hPa | - | - | - | - |
| 1777825070 | 19.44° C | 59% | 1017.8 hPa | - | - | - | - |
| 1777823869 | 20° C | 61% | 1017.9 hPa | - | - | - | - |
| 1777822668 | 19.44° C | 62% | 1017.8 hPa | - | - | - | - |
* Rain since midnight (hover to see other rain measurements)
** Current wind speed in m/s (hover to see current wind gust speed)